Regional Weather Roundup
Issued by NWS Albany, NY

Home | Current Version | Previous Version | Graphics & Text | Print | Product List | Glossary Off
Versions: 1 2 3 4 5 6 7 8 9 10 11 12 13 14 15 16 17 18 19 20 21 22 23 24 25 26 27 28 29 30 31 32 33 34 35 36 37 38 39 40 41 42 43 44 45 46 47 48 49 50

064
ASUS41 KALY 152210
RWRALY

NEW YORK STATE HOURLY WEATHER ROUNDUP
NATIONAL WEATHER SERVICE ALBANY NY
500 PM EST FRI DEC 15 2017

NOTE: "FAIR" INDICATES FEW OR NO CLOUDS BELOW 12,000 FEET WITH NO
SIGNIFICANT WEATHER AND/OR NO OBSTRUCTIONS TO VISIBILITY.

NYZ032-033-038>043-046>054-057>066-NYZ062>081-082-084-152300-
EAST


CITY           SKY/WX    TMP DP  RH WIND       PRES   REMARKS
ALBANY         CLOUDY    22   9  57 S5        29.89F WCI  16
GLENS FALLS    CLOUDY    17  11  77 N3        29.88F
POUGHKEEPSIE   FLURRIES  22  14  71 CALM      29.90F
NEWBURGH       LGT SNOW  19  18  93 CALM      29.89F
MONTGOMERY     LGT SNOW  21  18  88 CALM      29.88F FOG
WHITE PLAINS   LGT SNOW  23  20  88 W3        29.89R VSB 1
ISLIP          LGT SNOW  27  25  92 CALM      29.90R VSB 3/4
NEW YORK CITY  SNOW      25  22  88 VRB5      29.93R VSB 1/2 WCI  19
CENTRAL PARK   SNOW      24  21  88 W3        29.94R VSB 1/2
$$

NYZ005>009-017-018-044>046-055-056-152300-
CENTRAL


CITY           SKY/WX    TMP DP  RH WIND       PRES   REMARKS
FULTON         CLOUDY    21  14  74 CALM      29.81F
SYRACUSE       CLOUDY    23  13  65 S12       29.82S WCI  12
ROME           CLOUDY    21  12  68 E6        29.84F WCI  13
ELMIRA         CLOUDY    25  15  66 SW6       29.79F WCI  18
BINGHAMTON     CLOUDY    18   9  68 SW6       29.75F WCI  10
MONTICELLO     LGT SNOW  18  14  86 S6        29.81S FOG     WCI   9
$$

NYZ026>034-041>043-087-152300-
NORTH


CITY           SKY/WX    TMP DP  RH WIND       PRES   REMARKS
WATERTOWN      CLOUDY    22  14  71 S6        29.81S WCI  14
FORT DRUM      NOT AVBL
OGDENSBURG     FAIR      23  21  91 S3        29.81S
MASSENA        CLOUDY    19  16  88 NE8       29.84F WCI   9
SARANAC LAKE   CLOUDY    16   9  74 S8        29.72F WCI   5
PLATTSBURGH    CLOUDY    21  11  65 SE3       29.85F
$$

NYZ001>004-010>016-019>021-085-152300-
WEST


CITY           SKY/WX    TMP DP  RH WIND       PRES   REMARKS
NIAGARA FALLS  LGT SNOW  27  21  78 SW15G25   29.73F VSB 3/4 WCI  15
BUFFALO        LGT SNOW  23  18  81 S17       29.75F WCI   9
DUNKIRK        CLOUDY    23  17  78 S15G23    29.77F WCI  10
JAMESTOWN      LGT SNOW  18  16  92 S13       29.74S VSB 1   WCI   5
WELLSVILLE     CLOUDY    22  10  60 W9        29.73S WCI  12
ROCHESTER      CLOUDY    26  15  63 SW9       29.78F WCI  17
PENN YAN       CLOUDY    25  12  58 SW7       29.78S WCI  17
$$

             KEY
       WCI = WIND CHILL INDEX
       VSB = VISIBILITY
       HX  = HEAT INDEX
$$




USA.gov is the U.S. government's official web portal to all federal, state and local government web resources and services.